Meteo Giornale » Osservazioni meteo Indonesia » Jayapura-Sentani
ore: 16:30 - Osservazioni Meteo Jayapura-Sentani
Lat. 2° 34' S Lon. 140° 29' E Alt. 99 metri s.l.m.
29 °C
Poco Nuvoloso
Temp. 24 Ore
23 °C
32 °C
Est
20.3 Km/h
Dew point 26 °C
Umidità 83 %
Visibilità 10 Km
Il sole sorge alle ore 05:36
Il sole tramonta alle ore 17:40
| Data e Ora | Cielo e Fenomeni | T °C | DP °C | Um. % | Pres. hPa | Vis. km | Vento km/h | |
|---|---|---|---|---|---|---|---|---|
| Oggi h: 16:30 | Poco Nuvoloso | 29 | 26 | 83 | 1009 | 10 | E 20.3 | |
| Oggi h: 16:00 | Poco Nuvoloso | 30 | 26 | 79 | 1009 | 10 | E 18.5 | |
| Oggi h: 15:30 | Poco Nuvoloso | 31 | 25 | 70 | 1009 | 10 | E 20.3 | |
| Oggi h: 15:00 | Poco Nuvoloso | 31 | 26 | 74 | 1009 | 10 | E 24 | |
| Oggi h: 14:30 | Poco Nuvoloso | 32 | 26 | 70 | 1009 | 10 | E 20.3 | |
| Oggi h: 14:00 | Poco Nuvoloso | 32 | 25 | 66 | 1009 | 10 | E 11.1 | |
| Oggi h: 13:30 | Poco Nuvoloso | 32 | 24 | 62 | 1010 | 10 | N 5.5 | |
| Oggi h: 13:00 | Poco Nuvoloso | 31 | 24 | 66 | 1010 | 10 | N 5.5 | |
| Oggi h: 12:30 | Poco Nuvoloso | 32 | 24 | 62 | 1011 | 10 | N 5.5 | |
| Oggi h: 12:00 | Poco Nuvoloso | 31 | 23 | 62 | 1011 | 10 | N 5.5 | |
| Oggi h: 11:30 | Poco Nuvoloso | 31 | 23 | 62 | 1012 | 10 | N 5.5 | |
| Oggi h: 11:00 | Poco Nuvoloso | 30 | 23 | 66 | 1013 | 10 | N 5.5 | |
| Oggi h: 10:30 | Poco Nuvoloso | 29 | 24 | 74 | 1014 | 10 | N 5.5 | |
| Oggi h: 10:00 | Poco Nuvoloso | 29 | 24 | 74 | 1014 | 10 | N 5.5 | |
| Oggi h: 09:30 | Poco Nuvoloso | 28 | 25 | 83 | 1014 | 10 | N 5.5 | |
| Oggi h: 09:00 | Poco Nuvoloso | 27 | 24 | 83 | 1014 | 10 | N 3.7 | |
| Oggi h: 08:30 | Poco Nuvoloso | 28 | 25 | 83 | 1014 | 10 | N 5.5 | |
| Oggi h: 08:00 | Poco Nuvoloso | 27 | 24 | 83 | 1014 | 10 | N 5.5 | |
| Oggi h: 07:30 | Poco Nuvoloso | 27 | 24 | 83 | 1014 | 10 | N 3.7 | |
| Oggi h: 07:00 | Nuvoloso | 24 | 24 | 100 | 1014 | 10 | N 1.8 | |
| Oggi h: 06:30 | Nuvoloso | 24 | 24 | 100 | 1014 | 10 | N 1.8 | |
| Oggi h: 06:00 | Nuvoloso | 23 | 23 | 100 | 1014 | 10 | N 3.7 | |
| Oggi h: 05:30 | Nuvoloso | 23 | 23 | 100 | 1013 | 10 | N 1.8 | |
| Oggi h: 05:00 | Nuvoloso | 23 | 23 | 100 | 1013 | 10 | N 1.8 | |
| Oggi h: 04:30 | Nuvoloso | 23 | 23 | 100 | 1013 | 10 | N 1.8 | |
| Oggi h: 04:00 | Nuvoloso | 23 | 23 | 100 | 1013 | 10 | N 1.8 | |
| Oggi h: 03:30 | Nuvoloso | 23 | 23 | 100 | 1013 | 10 | N 5.5 | |
| Oggi h: 03:00 | Temporale nelle vicinanze | 23 | 23 | 100 | 1012 | 10 | N 5.5 | |
| Oggi h: 02:30 | Temporale nelle vicinanze | 23 | 23 | 100 | 1012 | 10 | N 3.7 | |
| Oggi h: 02:00 | Nuvoloso | 24 | 23 | 94 | 1013 | 10 | N 1.8 | |
| Oggi h: 01:30 | Temporale | 23 | 23 | 100 | 1013 | 10 | N 5.5 | |
| Oggi h: 01:00 | Temporale nelle vicinanze Pioggia | 23 | 23 | 100 | 1013 | 2 | NO 7.4 | |
| Oggi h: 00:30 | Pioggia | 24 | 23 | 94 | 1013 | 5 | O 11.1 | |
| Oggi h: 00:00 | Temporale | 26 | 25 | 94 | 1013 | 10 | N 3.7 | |
| Ieri h: 23:30 | Poco Nuvoloso | 27 | 25 | 88 | 1013 | 10 | E/NE 9.3 | |
| Ieri h: 23:00 | Poco Nuvoloso | 27 | 26 | 94 | 1014 | 10 | N 5.5 | |
| Ieri h: 22:30 | Poco Nuvoloso | 27 | 26 | 94 | 1014 | 10 | N 1.8 | |
| Ieri h: 22:00 | Poco Nuvoloso | 27 | 26 | 94 | 1014 | 10 | N 1.8 | |
| Ieri h: 21:30 | Poco Nuvoloso | 27 | 25 | 88 | 1013 | 10 | N 5.5 | |
| Ieri h: 21:00 | Poco Nuvoloso | 27 | 25 | 88 | 1013 | 10 | E/SE 7.4 | |
| Ieri h: 20:30 | Poco Nuvoloso | 28 | 25 | 83 | 1013 | 10 | N 3.7 | |
| Ieri h: 20:00 | Poco Nuvoloso | 27 | 25 | 88 | 1013 | 10 | N 1.8 | |
| Ieri h: 19:30 | Poco Nuvoloso | 28 | 25 | 83 | 1012 | 10 | N 3.7 | |
| Ieri h: 19:00 | Poco Nuvoloso | 28 | 26 | 88 | 1012 | 10 | O/NO 7.4 | |
| Ieri h: 18:30 | Poco Nuvoloso | 29 | 25 | 79 | 1011 | 10 | N 5.5 | |
| Ieri h: 18:00 | Poco Nuvoloso | 29 | 25 | 79 | 1011 | 10 | N 5.5 | |



